Home   Weather   Durango   Past weeks

Flag for USA Past Weather in Durango, Colorado, USA — Yesterday and Last 2 Weeks

Now
37 °F

Broken clouds.


Feels Like: 30 °F
Forecast: 21 / 54 °F
Wind: 9 mph from Southeast

Location: Durango-La Plata County Airport

Current Time: Apr 29, 2017 at 7:42:42 pm

Latest Report: Apr 29, 2017 at 6:53 pm


Visibility: 10 mi

Pressure: 30.01 "Hg (23.46 "Hg at 1989m altitude)

Humidity: 86%

Dew Point: 33 °F

Location of DurangoLocation

Past Weather in Durango — Graph

°F

Durango Temperature Yesterday

Maximum temperature yesterday: 41 °F (at 1:53 pm)
Minimum temperature yesterday: 30 °F (at 9:53 pm)
Average temperature yesterday: 36 °F

High & Low Weather Summary for the Past Weeks

 TemperatureHumidityPressure
High71 °F (Apr 18, 2:53 pm)100% (Apr 27, 4:02 am)30.15 "Hg (Apr 27, 4:02 am)
Low24 °F (Apr 22, 4:53 am)9% (Apr 14, 5:53 pm)29.50 "Hg (Apr 25, 4:53 am)
Average47 °F41%29.87 "Hg
* Reported Apr 14 5:53 pm — Apr 29 5:53 pm, Durango, Weather by CustomWeather, © 2017

Note: Actual official high and low records may vary slightly from our data, if they occured in-between our weather recording intervals... More about our weather records

Advertising

Durango Weather History for the Previous 24 Hours

Scroll right to see more
 ConditionsComfort  
Time TempWeatherWind HumidityBarometerVisibility
5:53 pm
Sat, Apr 29
41 °FOvercast.15 mph55%29.97 "Hg10 mi
4:53 pm45 °FScattered clouds.12 mph42%29.92 "Hg10 mi
3:53 pm45 °FPartly sunny.13 mph42%29.93 "Hg10 mi
2:53 pm44 °FPartly sunny.15 mph47%29.94 "Hg10 mi
1:53 pm42 °FScattered clouds.9 mph45%29.96 "Hg10 mi
12:53 pm43 °FPassing clouds.6 mph42%29.95 "Hg10 mi
11:53 am41 °FScattered clouds.5 mph49%29.95 "Hg10 mi
10:53 am37 °FScattered clouds.5 mph60%29.95 "Hg10 mi
9:53 am35 °FPartly sunny.3 mph70%29.95 "Hg10 mi
9:42 am34 °FPartly sunny.6 mph70%29.91 "Hg10 mi
8:53 am31 °FMostly cloudy.3 mph82%29.95 "Hg9 mi
7:53 am29 °FMostly cloudy.3 mph82%29.92 "Hg10 mi
6:53 am27 °FScattered clouds.No wind81%29.89 "Hg10 mi
5:53 am28 °FOvercast.5 mph81%29.84 "Hg10 mi
4:53 am28 °FOvercast.5 mph85%29.85 "Hg10 mi
3:53 am27 °FOvercast.No wind85%29.85 "Hg10 mi
2:53 am27 °FOvercast.5 mph81%29.81 "Hg10 mi
1:53 am25 °FClear.3 mph85%29.85 "Hg10 mi
12:53 am29 °FClear.5 mph79%29.82 "Hg10 mi
11:53 pm
Fri, Apr 28
31 °FClear.No wind73%29.81 "Hg10 mi
10:53 pm30 °FClear.3 mph79%29.84 "Hg10 mi
9:53 pm30 °FClear.7 mph79%29.82 "Hg10 mi
8:53 pm31 °FClear.7 mph79%29.78 "Hg10 mi
7:53 pm35 °FSunny.5 mph67%29.77 "Hg10 mi
Weather by CustomWeather, © 2017

See weather overviewHow to use our weather pages